Voltar ao catálogo

STARLINK-30049

AtivoComunicaçõesVLEO
NORAD 56294·PAYLOAD·🇺🇸 United States

Lançado Apr 19, 2023 de Cape Canaveral Space Force Station

Loading…

Próximas Passagens (próximas 24 horas)

TLE

AtualizadoSource: CelesTrak SupGP

Época: Sep 14, 2026, 20:48 UTC

1 56294C 23056J   26257.86715278  .00033047  00000+0  11971-2 0  2572
2 56294  43.0020 220.7367 0001417 264.5414 293.5560 15.27559782    15

Acompanhe STARLINK-30049 em tempo real com AllMySat

Download on the App Store